Погода в Елабуге

Погода в Елабуге : погода сейчас, прогноз погоды и архив. Всё, что Вы хотите узнать о погоде в Елабуге!

Поиск расширенной информации на нашем сайте:

Другие новости

Новости СМИ2

Главная страница сайта

Новости сайта

03.07.2017

Напоминаем, что на нашем специализированном сайте Метеоцентр.Азия вы можете получить высокодетализированные автоматические прогнозы погоды по пунктам России, СНГ и мира в авиационном формате (включающие направление и скорость ветра, видимость, явления погоды, количество и форму облачности, нижнюю и верхнюю границу облачности).


Погода в Елабуге - сегодня

Время (UTC), дата Ветер
(°,м/с) 
Видим.   Явления Облачность Т
(°С)
Тd
(°С)
f(%) Тe
(°С)
Pmin
(гПа)
dP
(гПа)
Po
(мм)
O2
(г/м3)
Тmin Tmax R s Состояние
почвы
18 14.06.18 320 (СЗ) 10 км    10/0 средняя 
[Ac und]
+12 +4.9 62 +13  1013.4  0.8  752  289           
21 14.06.18 310 (СЗ) 10 км    8/0 средняя 
[Ac und]
+8.6 +4.9 78 +9  1014.3  0.7  752  293           
00 15.06.18 320 (СЗ) 10 км    8/0 средняя 
[Ac As]
+7.3 +4.1 80 +7  1015.2  0.8  753  295           
06 15.06.18 330 (СЗ) 10 км    6/6 600 м 
[Cu med, cong]
+13.8 +3.5 50 +14  1015.8  0.1  754  289           
09 15.06.18 310 (СЗ) 10 км    6/6 600 м 
[Cu med, cong]
+14.9 +0.5 37 +15  1015.6  0.1  754  288           
12 15.06.18 310 (СЗ) 10 км    6/6 600 м 
[Cu med, cong]
+15.3 -0.9 33 +16  1015.7  0.1  754  288           
15 15.06.18 320 (СЗ) 10 км    6/6 600 м 
[Cu med, cong]
+13.7 -0.8 37 +14  1016  0.3  754  289    +16.2       
18 15.06.18 310 (СЗ) 10 км    8/0 средняя 
[Ac und]
+11 +1 50 +12  1016.6  0.5  754  292           
21 15.06.18 310 (СЗ) 10 км    3/0 верхняя 
[Ci fib]
+6.4 +1.5 71 +6  1016.8  754  297           
00 16.06.18 300 (СЗ) 10 км    3/0 верхняя 
[Ci fib]
+6.4 +0.8 67 +6  1016.5  -0.3  754  297           
06 16.06.18 310 (СЗ) 10 км    3/0 верхняя 
[Cs]
+16.6 -0.4 31 +17  1015.8  -0.6  754  286           
09 16.06.18 330 (СЗ) 4{10}  10 км    3/0 средняя 
[Ac lent]
+18.8 -0.1 28 +19  1014.8  -0.9  753  284           
15 16.06.18 350 (С) 10 км    6/0 средняя 
[Ac trans]
+18.6 +3.5 37 +19  1014.9  0.2  753  284    +20.4       
18 16.06.18 320 (СЗ) 10 км    4/0 средняя 
[Ac lent]
+13.7 +5.5 58 +15  1015.7  0.6  754  288           
21 16.06.18 300 (СЗ) 10 км    4/0 средняя 
[Ac As]
+11.6 +5.3 65 +11  1015.6  0.1  754  290           
00 17.06.18 320 (СЗ) 10 км    3/0 верхняя 
[Cs]
+11.1 +4.2 62 +11  1014.8  -0.8  753  291           
06 17.06.18 320 (СЗ) 10 км    ясно 
+19.7 +4.8 37 +20  1013.1  -1.2  752  282           
09 17.06.18 340 (С) 5{11}  10 км    5/0 
[Cu hum]
+21.9 +3.4 30 +22  1011.9  -1  751  280           
15 17.06.18 030 (СВ) 3{11}  10 км    6/0 средняя 
[Ac lent]
+20.7 +3.6 32 +21  1012.5  0.7  752  281    +23.3       
18 17.06.18 тихо ()   10 км    ясно 
+13.7 +6.7 63 +14  1013.3  0.5  752  287           
21 17.06.18 320 (СЗ) 10 км    ясно 
+10.2 +6.5 78 +11  1013.5  0.1  752  291           
00 18.06.18 300 (СЗ) 10 км    ясно 
+9.8 +6.3 79 +11  1013.2  -0.3  752  291           
06 18.06.18 310 (СЗ) 10 км    3/1 600 м верхняя 
[Cu hum|Ci fib]
+21.6 +7.6 40 +22  1011.9  -1  751  279           
09 18.06.18 330 (СЗ) 10 км    6/6 600 м 
[Cu hum]
+24.5 +6.9 32 +25  1010.4  -1.4  750  276           
12 18.06.18 320 (СЗ) 10 км    6/6 600 м 
[Cu hum]
+25.8 +4.5 25 +26  1009.4  -0.9  749  275           
Время (UTC), дата Ветер
(°,м/с) 
Видим.   Явления Облачность Т
(°С)
Тd
(°С)
f(%) Тe
(°С)
Pmin
(гПа)
dP
(гПа)
Po
(мм)
O2
(г/м3)
Тmin Tmax R s Состояние
почвы

Для получения пояснительной информации подведите курсор к названию столбца.

ПОГОДА в Елабуге - архив

Всё, что Вы хотите узнать о погоде в Елабуге - удобно и подробно!

Выберите нужную дату (начиная с 1 января 2015* года) и нажмите кнопку "Найти".
Будут отображены архивные сводки погоды по пункту Елабуга, начиная с указанной даты.


Отображать данные в формате CSV (для использования в таблицах Excel)


Внимание! Наш архив погоды предназначен исключительно для личного некоммерческого использования в познавательных целях. Если Вам необходимы официальные справки о состоянии погоды (для производственных, юридических, коммерческих и т.п. целей), обращайтесь в органы Росгидромета.

*Примечание: данная дата относится к архиву по метеостанциям СССР (Россия, СНГ, Балтия).
Архив по метеостанциям Зарубежной Европы и Азии (кроме Китая) хранится 10 дней, по другим регионам земного шара (Китай, Африка, Америка, Австралия, Океания) - 1 день.

Елабуга - район местоположения метеостанции


Название, широта, долгота, высота метеостанции:
Елабуга 55.7°ш. 52.1°д. 90 м над ур. моря [Российская Федерация]

Дополнительная информация

В oтличие oт бoльшинства пoгoдных сайтoв мы публикуем пoдрoбную метеoинфoрмацию в детальнoм прoфессиoнальнoм фoрмате.

Характеристики температуры и влажнoсти вoздуха измеряются на высoте 2 м в тени вдали oт зданий и деревьев.
Скoрoсть ветра измеряется на высoте 10 м (на урoвне рoста челoвека скoрoсть ветра ниже в 1.5-2 раза). Если метеoстанция нахoдится в гoрoде или в лесу, тo скoрoсть ветра занижена на 2-4 м/с пo сравнению с oткрытым местoм. Скoрoсть ветра над акватoриями крупных рек и oзёр, а также на вершинах хoлмoв на 2-5 м/с выше, чем в oбычных услoвиях.
Атмoсфернoе давление в разных тoчках местнoсти мoжет значительнo oтличаться oт давления на метеoстанции, в зависимoсти oт услoвий рельефа (при пoдъёме на 10 м давление пoнижается примернo на 1 мм рт.ст.).